logo tempoitalia

Diretta Meteo Hebbronville, Stati Uniti (USA)lunedì 31 agosto ore 01:35

Mappa
Sereno 27 °C Sereno 24 Ore: T.min 24 T.max 38
Ponente Sud/Sud-Est Km/h 14.8 Punto di rugiada: 26 °C Umidità: 94% Visibilità: 10 Km
Il sole sorge alle: 07:13 Il sole tramonta alle: 19:56
31 Agosto 2026 01:35 tempo osservato: Sereno Sereno 27 94 1014 vento: Nord S/SE 14.8
31 Agosto 2026 01:15 tempo osservato: Sereno Sereno 27 94 1014 vento: Nord S/SE 16.7
31 Agosto 2026 00:55 tempo osservato: Sereno Sereno 28 88 1014 vento: Nord S/SE 20.3
31 Agosto 2026 00:35 tempo osservato: Sereno Sereno 28 88 1014 vento: Nord SE 18.5
31 Agosto 2026 00:15 tempo osservato: Sereno Sereno 28 88 1014 vento: Nord SE 24
30 Agosto 2026 23:55 tempo osservato: Sereno Sereno 28 88 1014 vento: Nord SE 20.3
30 Agosto 2026 23:35 tempo osservato: Sereno Sereno 28 88 1014 vento: Nord SE 16.7
30 Agosto 2026 23:15 tempo osservato: Sereno Sereno 28 88 1014 vento: Nord SE 22.2
30 Agosto 2026 22:55 tempo osservato: Sereno Sereno 29 79 1014 vento: Nord SE 16.7
30 Agosto 2026 22:35 tempo osservato: Sereno Sereno 29 79 1014 vento: Nord E/SE 20.3
30 Agosto 2026 22:15 tempo osservato: Sereno Sereno 29 74 1013 vento: Nord E/SE 18.5
30 Agosto 2026 21:55 tempo osservato: Sereno Sereno 29 74 1013 vento: Nord E/SE 18.5
30 Agosto 2026 21:35 tempo osservato: Sereno Sereno 30 70 1012 vento: Nord E/SE 22.2
30 Agosto 2026 21:15 tempo osservato: Sereno Sereno 30 70 1012 vento: Nord E/SE 22.2
30 Agosto 2026 20:55 tempo osservato: Sereno Sereno 31 62 1012 vento: Nord E/SE 24
30 Agosto 2026 20:35 tempo osservato: Sereno Sereno 31 62 1012 vento: Nord E/SE 27.8
30 Agosto 2026 20:15 tempo osservato: Sereno Sereno 32 59 1011 vento: Nord E/SE 24
30 Agosto 2026 19:55 tempo osservato: Sereno Sereno 32 59 1011 vento: Nord E/SE 29.6
30 Agosto 2026 19:35 tempo osservato: Sereno Sereno 33 55 1011 vento: Nord E/SE 35.2
30 Agosto 2026 19:15 tempo osservato: Sereno Sereno 34 52 1011 vento: Nord E/SE 25.9
30 Agosto 2026 18:55 tempo osservato: Sereno Sereno 35 49 1011 vento: Nord E/SE 35.2
30 Agosto 2026 18:35 tempo osservato: Sereno Sereno 36 44 1011 vento: Nord E/SE 22.2
30 Agosto 2026 18:15 tempo osservato: Sereno Sereno 36 44 1010 vento: Nord E/SE 29.6
30 Agosto 2026 17:55 tempo osservato: Sereno Sereno 36 47 1010 vento: Nord E 31.5
30 Agosto 2026 17:35 tempo osservato: Sereno Sereno 36 44 1010 vento: Nord E/SE 37
30 Agosto 2026 17:15 tempo osservato: Sereno Sereno 38 29 1010 vento: Nord E 14.8
30 Agosto 2026 16:55 tempo osservato: Sereno Sereno 38 29 1010 vento: Nord SE 16.7
30 Agosto 2026 16:35 tempo osservato: Poco Nuvoloso Poco Nuvoloso 38 29 1010 vento: Nord SE 11.1
30 Agosto 2026 16:15 tempo osservato: Sereno Sereno 38 31 1011 vento: Nord S/SE 16.7
30 Agosto 2026 15:55 tempo osservato: Sereno Sereno 37 32 1011 vento: Nord S 16.7
30 Agosto 2026 15:35 tempo osservato: Sereno Sereno 38 31 1011 vento: Nord SE 14.8
30 Agosto 2026 15:15 tempo osservato: Sereno Sereno 38 31 1012 vento: Nord S 18.5
30 Agosto 2026 14:55 tempo osservato: Sereno Sereno 37 35 1012 vento: Nord E/SE 18.5
30 Agosto 2026 14:35 tempo osservato: Poco Nuvoloso Poco Nuvoloso 36 36 1013 vento: Nord E/SE 18.5
30 Agosto 2026 14:15 tempo osservato: Sereno Sereno 36 39 1013 vento: Nord E 14.8
30 Agosto 2026 13:55 tempo osservato: Poco Nuvoloso Poco Nuvoloso 36 39 1014 vento: Nord S 16.7
30 Agosto 2026 13:35 tempo osservato: Sereno Sereno 36 39 1014 vento: Nord S/SE 7.4
30 Agosto 2026 13:15 tempo osservato: Poco Nuvoloso Poco Nuvoloso 35 44 1014 vento: Nord S/SE 18.5
30 Agosto 2026 12:55 tempo osservato: Sereno Sereno 35 44 1015 vento: Nord S/SE 7.4
30 Agosto 2026 12:35 tempo osservato: Sereno Sereno 35 47 1015 vento: Nord SE 11.1
30 Agosto 2026 12:15 tempo osservato: Sereno Sereno 35 44 1015 vento: Nord E/SE 16.7
30 Agosto 2026 11:55 tempo osservato: Sereno Sereno 34 52 1015 vento: Nord SE 20.3
30 Agosto 2026 11:35 tempo osservato: Sereno Sereno 33 55 1016 vento: Nord SE 16.7
30 Agosto 2026 11:15 tempo osservato: Sereno Sereno 33 55 1016 vento: Nord SE 11.1
30 Agosto 2026 10:55 tempo osservato: Sereno Sereno 32 62 1016 vento: Nord S/SE 18.5
30 Agosto 2026 10:35 tempo osservato: Sereno Sereno 31 66 1016 vento: Nord S/SE 18.5
30 Agosto 2026 10:15 tempo osservato: Sereno Sereno 30 74 1015 vento: Nord S/SE 20.3
30 Agosto 2026 09:55 tempo osservato: Sereno Sereno 29 79 1015 vento: Nord S/SE 16.7
30 Agosto 2026 09:35 tempo osservato: Sereno Sereno 28 88 1015 vento: Nord S/SE 11.1
30 Agosto 2026 09:15 tempo osservato: Nuvoloso Nuvoloso 28 88 1015 vento: Nord N 11.1
30 Agosto 2026 08:55 tempo osservato: Coperto Coperto 26 100 1015 vento: Nord SE 11.1
30 Agosto 2026 08:35 tempo osservato: Molto Nuvoloso Molto Nuvoloso 26 100 1015 vento: Nord N 9.3
30 Agosto 2026 08:15 tempo osservato: Poco Nuvoloso Poco Nuvoloso 25 100 1015 vento: Nord E/SE 11.1
30 Agosto 2026 07:55 tempo osservato: Foschia Foschia 24 100 1015 vento: Nord E/SE 11.1
30 Agosto 2026 07:35 tempo osservato: Coperto Coperto 24 100 1015 vento: Nord E 7.4
30 Agosto 2026 07:15 tempo osservato: Molto Nuvoloso Molto Nuvoloso 24 100 1015 vento: Nord E/SE 7.4
30 Agosto 2026 06:55 tempo osservato: Sereno Sereno 24 100 1014 vento: Nord E/SE 7.4
30 Agosto 2026 06:35 tempo osservato: Sereno Sereno 24 100 1014 vento: Nord E 7.4
30 Agosto 2026 06:15 tempo osservato: Sereno Sereno 24 100 1014 vento: Nord E/SE 7.4
30 Agosto 2026 05:55 tempo osservato: Sereno Sereno 25 100 1014 vento: Nord E/SE 7.4
30 Agosto 2026 05:35 tempo osservato: Sereno Sereno 25 100 1014 vento: Nord SE 7.4
30 Agosto 2026 05:15 tempo osservato: Sereno Sereno 25 100 1014 vento: Nord N 5.5
30 Agosto 2026 04:55 tempo osservato: Sereno Sereno 25 100 1014 vento: Nord N 5.5
30 Agosto 2026 04:35 tempo osservato: Sereno Sereno 25 100 1014 vento: Nord SE 7.4
30 Agosto 2026 04:15 tempo osservato: Sereno Sereno 26 94 1014 vento: Nord E/SE 9.3
30 Agosto 2026 03:55 tempo osservato: Sereno Sereno 26 94 1014 vento: Nord SE 9.3
30 Agosto 2026 03:35 tempo osservato: Sereno Sereno 26 94 1014 vento: Nord SE 11.1
30 Agosto 2026 03:15 tempo osservato: Sereno Sereno 26 94 1015 vento: Nord SE 11.1
30 Agosto 2026 02:55 tempo osservato: Sereno Sereno 26 94 1015 vento: Nord SE 11.1
30 Agosto 2026 02:35 tempo osservato: Sereno Sereno 26 94 1015 vento: Nord S/SE 9.3
30 Agosto 2026 02:15 tempo osservato: Sereno Sereno 26 94 1015 vento: Nord SE 9.3
30 Agosto 2026 01:55 tempo osservato: Sereno Sereno 27 88 1015 vento: Nord S/SE 11.1
30 Agosto 2026 01:35 tempo osservato: Sereno Sereno 27 88 1015 vento: Nord S/SE 13